QPF
0.00 0.00 0.00 0.00 0.00 0.00 0.00 0.00 0.00 0.00 0.00 0.00 0.01 0.02 0.03 0.02 0.03 0.08 0.08 0.06 0.03 0.02 0.01 0.01 0.01 0.01 0.01 0.01 0.01 0.00 0.01 0.01 0.01 0.01 0.02 0.02 0.03 0.04 0.04 0.03 0.03 0.03 0.03 0.03
0.00 0.00 0.00 0.00 0.00 0.00 0.00 0.00 0.00 0.00 0.01 0.01 0.02 0.02 0.03 0.03 0.02 0.02 0.03 0.08 0.11 0.06 0.03 0.02 0.02 0.02 0.01 0.01 0.01 0.01 0.01 0.01 0.02 0.02 0.03 0.04 0.04 0.04 0.03 0.04 0.04 0.03 0.03 0.03
0.00 0.00 0.00 0.00 0.00 0.00 0.00 0.00 0.00 0.01 0.01 0.01 0.01 0.03 0.04 0.04 0.03 0.02 0.04 0.07 0.07 0.03 0.03 0.04 0.03 0.03 0.03 0.02 0.02 0.01 0.01 0.02 0.02 0.01 0.03 0.03 0.04 0.04 0.03 0.03 0.03 0.04 0.04 0.03
0.00 0.00 0.00 0.00 0.00 0.00 0.00 0.00 0.02 0.04 0.02 0.02 0.02 0.02 0.03 0.05 0.04 0.03 0.03 0.04 0.05 0.06 0.04 0.03 0.03 0.04 0.08 0.05 0.02 0.01 0.02 0.03 0.02 0.01 0.01 0.02 0.02 0.02 0.02 0.02 0.02 0.02 0.03 0.03
0.00 0.00 0.00 0.00 0.00 0.00 0.00 0.02 0.02 0.01 0.01 0.02 0.01 0.02 0.02 0.02 0.02 0.02 0.02 0.04 0.08 0.08 0.05 0.05 0.06 0.07 0.08 0.06 0.03 0.03 0.03 0.04 0.03 0.02 0.02 0.02 0.02 0.01 0.01 0.01 0.01 0.01 0.02 0.02
0.00 0.00 0.00 0.00 0.00 0.00 0.00 0.04 0.03 0.01 0.01 0.01 0.01 0.03 0.07 0.04 0.02 0.02 0.03 0.05 0.07 0.08 0.07 0.10 0.17 0.17 0.15 0.11 0.07 0.05 0.04 0.05 0.04 0.03 0.03 0.02 0.02 0.01 0.01 0.01 0.01 0.01 0.01 0.01
0.00 0.00 0.00 0.00 0.00 0.00 0.01 0.07 0.06 0.02 0.02 0.02 0.01 0.01 0.02 0.03 0.02 0.01 0.03 0.04 0.03 0.03 0.04 0.05 0.08 0.10 0.15 0.13 0.09 0.08 0.08 0.06 0.04 0.03 0.03 0.02 0.02 0.02 0.02 0.02 0.02 0.02 0.01 0.02
0.00 0.01 0.01 0.00 0.00 0.01 0.02 0.05 0.06 0.03 0.02 0.02 0.02 0.01 0.01 0.02 0.05 0.04 0.02 0.02 0.02 0.04 0.05 0.07 0.09 0.10 0.09 0.10 0.10 0.10 0.08 0.06 0.05 0.05 0.04 0.04 0.05 0.05 0.05 0.05 0.02 0.02 0.01 0.02
0.02 0.03 0.02 0.01 0.01 0.01 0.02 0.04 0.06 0.05 0.04 0.04 0.04 0.04 0.03 0.03 0.04 0.06 0.06 0.04 0.03 0.04 0.05 0.06 0.07 0.07 0.08 0.08 0.08 0.08 0.07 0.06 0.05 0.04 0.04 0.04 0.05 0.04 0.04 0.04 0.02 0.02 0.02 0.02
0.04 0.04 0.03 0.03 0.03 0.02 0.02 0.03 0.04 0.04 0.04 0.04 0.05 0.04 0.03 0.03 0.03 0.04 0.05 0.08 0.10 0.09 0.08 0.08 0.07 0.07 0.09 0.09 0.09 0.08 0.07 0.06 0.03 0.03 0.03 0.03 0.03 0.03 0.03 0.03 0.03 0.02 0.02 0.01
0.07 0.08 0.06 0.04 0.04 0.03 0.03 0.03 0.03 0.03 0.03 0.04 0.04 0.04 0.04 0.02 0.02 0.02 0.03 0.05 0.07 0.10 0.08 0.07 0.08 0.08 0.10 0.09 0.07 0.07 0.08 0.07 0.05 0.03 0.02 0.02 0.02 0.02 0.02 0.02 0.02 0.01 0.01 0.01
0.06 0.09 0.08 0.07 0.05 0.05 0.04 0.04 0.03 0.03 0.03 0.02 0.03 0.05 0.05 0.04 0.03 0.02 0.02 0.03 0.02 0.03 0.03 0.03 0.03 0.03 0.04 0.06 0.07 0.06 0.06 0.06 0.03 0.02 0.01 0.01 0.01 0.01 0.01 0.01 0.01 0.01 0.01 0.01
0.08 0.08 0.10 0.12 0.10 0.09 0.07 0.08 0.07 0.06 0.05 0.05 0.04 0.04 0.03 0.03 0.02 0.02 0.02 0.02 0.03 0.02 0.02 0.02 0.01 0.01 0.02 0.02 0.02 0.03 0.03 0.02 0.01 0.01 0.01 0.01 0.01 0.01 0.01 0.01 0.01 0.01 0.01 0.01
0.15 0.15 0.17 0.19 0.16 0.14 0.12 0.11 0.11 0.11 0.08 0.05 0.04 0.04 0.03 0.03 0.02 0.02 0.02 0.02 0.02 0.02 0.02 0.02 0.02 0.02 0.04 0.05 0.05 0.06 0.05 0.04 0.03 0.02 0.02 0.02 0.02 0.02 0.02 0.02 0.02 0.01 0.01 0.01
0.20 0.17 0.16 0.15 0.15 0.13 0.13 0.12 0.13 0.13 0.07 0.03 0.02 0.02 0.02 0.03 0.02 0.02 0.01 0.02 0.02 0.02 0.02 0.02 0.02 0.03 0.05 0.06 0.05 0.05 0.05 0.05 0.05 0.05 0.06 0.05 0.04 0.04 0.03 0.03 0.03 0.02 0.01 0.01
0.15 0.13 0.15 0.15 0.12 0.11 0.12 0.11 0.10 0.10 0.07 0.04 0.03 0.02 0.02 0.02 0.02 0.02 0.01 0.01 0.01 0.01 0.01 0.01 0.01 0.02 0.02 0.03 0.04 0.05 0.05 0.05 0.06 0.05 0.06 0.05 0.04 0.04 0.03 0.03 0.02 0.01 0.01 0.01
0.08 0.10 0.13 0.15 0.12 0.09 0.10 0.11 0.10 0.08 0.06 0.06 0.05 0.03 0.02 0.02 0.02 0.02 0.01 0.01 0.01 0.01 0.01 0.01 0.01 0.01 0.02 0.02 0.03 0.04 0.05 0.05 0.04 0.04 0.04 0.05 0.05 0.04 0.03 0.02 0.02 0.01 0.01 0.01
0.05 0.06 0.07 0.10 0.08 0.05 0.05 0.07 0.09 0.10 0.09 0.07 0.06 0.04 0.03 0.02 0.01 0.01 0.01 0.01 0.01 0.01 0.01 0.01 0.00 0.01 0.01 0.01 0.02 0.03 0.04 0.03 0.03 0.03 0.03 0.03 0.03 0.02 0.02 0.02 0.02 0.01 0.02 0.02
0.05 0.05 0.05 0.06 0.05 0.04 0.05 0.05 0.05 0.07 0.09 0.09 0.07 0.05 0.04 0.03 0.02 0.01 0.01 0.01 0.01 0.01 0.01 0.00 0.00 0.00 0.01 0.01 0.02 0.03 0.03 0.02 0.03 0.03 0.03 0.03 0.03 0.03 0.02 0.02 0.02 0.02 0.02 0.02
0.04 0.04 0.04 0.04 0.04 0.05 0.05 0.06 0.06 0.06 0.07 0.06 0.06 0.05 0.03 0.02 0.02 0.02 0.01 0.01 0.01 0.01 0.01 0.01 0.01 0.01 0.01 0.01 0.02 0.01 0.02 0.02 0.03 0.04 0.05 0.05 0.04 0.04 0.04 0.03 0.03 0.02 0.02 0.02
0.04 0.04 0.05 0.06 0.05 0.04 0.04 0.04 0.05 0.05 0.06 0.06 0.05 0.04 0.03 0.02 0.01 0.01 0.01 0.01 0.01 0.02 0.02 0.02 0.01 0.01 0.01 0.01 0.01 0.01 0.01 0.01 0.01 0.02 0.03 0.03 0.03 0.03 0.02 0.02 0.02 0.02 0.02 0.02
0.05 0.05 0.05 0.06 0.06 0.05 0.04 0.03 0.04 0.05 0.05 0.06 0.05 0.04 0.03 0.03 0.02 0.03 0.02 0.01 0.01 0.01 0.01 0.01 0.01 0.01 0.01 0.01 0.01 0.01 0.00 0.00 0.01 0.01 0.02 0.02 0.03 0.03 0.03 0.04 0.04 0.04 0.04 0.03
0.07 0.05 0.04 0.04 0.05 0.05 0.04 0.03 0.03 0.03 0.04 0.03 0.04 0.04 0.04 0.04 0.03 0.03 0.03 0.01 0.01 0.01 0.01 0.01 0.02 0.02 0.02 0.02 0.02 0.01 0.01 0.00 0.01 0.01 0.02 0.03 0.03 0.03 0.03 0.02 0.02 0.01 0.01 0.01
0.05 0.04 0.03 0.03 0.03 0.05 0.04 0.04 0.03 0.04 0.04 0.04 0.04 0.04 0.05 0.07 0.06 0.05 0.04 0.03 0.01 0.01 0.01 0.01 0.02 0.02 0.01 0.01 0.01 0.01 0.01 0.01 0.01 0.01 0.02 0.02 0.02 0.02 0.01 0.01 0.01 0.01 0.01 0.01
0.06 0.06 0.05 0.04 0.04 0.05 0.06 0.06 0.05 0.05 0.06 0.05 0.05 0.05 0.04 0.05 0.05 0.05 0.04 0.03 0.03 0.02 0.02 0.02 0.01 0.01 0.01 0.01 0.01 0.01 0.01 0.01 0.01 0.01 0.01 0.01 0.01 0.01 0.01 0.01 0.01 0.01 0.01 0.01
0.08 0.08 0.06 0.05 0.04 0.03 0.03 0.03 0.04 0.05 0.06 0.06 0.06 0.05 0.04 0.04 0.03 0.03 0.03 0.02 0.03 0.03 0.02 0.02 0.02 0.02 0.01 0.01 0.01 0.01 0.01 0.01 0.01 0.01 0.01 0.01 0.01 0.02 0.01 0.01 0.01 0.01 0.01 0.01
0.09 0.08 0.07 0.06 0.04 0.04 0.03 0.03 0.03 0.03 0.03 0.04 0.06 0.06 0.04 0.03 0.02 0.02 0.02 0.02 0.02 0.03 0.02 0.02 0.03 0.02 0.02 0.02 0.02 0.01 0.01 0.01 0.01 0.02 0.01 0.01 0.01 0.01 0.01 0.01 0.01 0.01 0.01 0.00
MSLP
1015.20 1015.25 1015.34 1015.43 1015.48 1015.41 1015.19 1014.81 1014.25 1013.57 1012.82 1012.08 1011.44 1010.95 1010.68 1010.62 1010.76 1011.05 1011.45 1011.87 1012.28 1012.64 1012.93 1013.16 1013.37 1013.59 1013.83 1014.14 1014.48 1014.86 1015.24 1015.58 1015.86 1016.05 1016.15 1016.16 1016.11 1016.03 1015.96 1015.92 1015.93 1015.99 1016.10 1016.26
1015.65 1015.57 1015.45 1015.27 1015.01 1014.63 1014.13 1013.52 1012.82 1012.08 1011.36 1010.71 1010.20 1009.87 1009.72 1009.75 1009.93 1010.22 1010.56 1010.92 1011.26 1011.57 1011.85 1012.13 1012.42 1012.77 1013.17 1013.63 1014.13 1014.65 1015.14 1015.58 1015.93 1016.17 1016.32 1016.38 1016.38 1016.36 1016.32 1016.31 1016.33 1016.37 1016.45 1016.54
1016.09 1015.85 1015.53 1015.10 1014.57 1013.93 1013.19 1012.40 1011.58 1010.80 1010.10 1009.53 1009.13 1008.91 1008.85 1008.94 1009.13 1009.39 1009.68 1009.98 1010.26 1010.54 1010.83 1011.16 1011.55 1012.01 1012.56 1013.16 1013.80 1014.43 1015.02 1015.53 1015.93 1016.23 1016.42 1016.53 1016.58 1016.61 1016.63 1016.66 1016.70 1016.75 1016.80 1016.85
1016.48 1016.08 1015.56 1014.92 1014.15 1013.29 1012.37 1011.43 1010.54 1009.73 1009.06 1008.56 1008.25 1008.10 1008.11 1008.24 1008.44 1008.67 1008.92 1009.17 1009.42 1009.69 1010.01 1010.39 1010.87 1011.44 1012.10 1012.81 1013.54 1014.25 1014.89 1015.43 1015.86 1016.17 1016.40 1016.54 1016.65 1016.73 1016.82 1016.90 1016.99 1017.07 1017.13 1017.16
1016.80 1016.23 1015.53 1014.69 1013.73 1012.70 1011.63 1010.60 1009.65 1008.85 1008.21 1007.77 1007.53 1007.46 1007.53 1007.69 1007.90 1008.14 1008.37 1008.60 1008.85 1009.14 1009.49 1009.93 1010.47 1011.12 1011.84 1012.61 1013.38 1014.10 1014.74 1015.28 1015.69 1016.01 1016.23 1016.41 1016.56 1016.70 1016.85 1017.01 1017.17 1017.30 1017.39 1017.43
1017.00 1016.27 1015.39 1014.38 1013.27 1012.11 1010.95 1009.86 1008.90 1008.10 1007.52 1007.14 1006.97 1006.98 1007.11 1007.32 1007.57 1007.83 1008.09 1008.34 1008.62 1008.94 1009.33 1009.81 1010.39 1011.07 1011.81 1012.58 1013.32 1014.01 1014.60 1015.08 1015.46 1015.74 1015.95 1016.14 1016.32 1016.51 1016.73 1016.96 1017.19 1017.38 1017.53 1017.61
1017.06 1016.17 1015.15 1014.01 1012.78 1011.53 1010.32 1009.21 1008.25 1007.49 1006.96 1006.66 1006.57 1006.66 1006.87 1007.15 1007.47 1007.79 1008.10 1008.40 1008.73 1009.09 1009.51 1010.02 1010.61 1011.27 1011.98 1012.69 1013.36 1013.97 1014.47 1014.87 1015.17 1015.40 1015.59 1015.77 1015.97 1016.20 1016.47 1016.76 1017.04 1017.30 1017.50 1017.63
1016.97 1015.96 1014.82 1013.58 1012.29 1010.99 1009.76 1008.65 1007.73 1007.02 1006.56 1006.34 1006.34 1006.52 1006.82 1007.19 1007.59 1007.99 1008.38 1008.75 1009.14 1009.54 1009.99 1010.50 1011.06 1011.67 1012.30 1012.92 1013.49 1013.97 1014.37 1014.67 1014.89 1015.05 1015.20 1015.36 1015.55 1015.80 1016.09 1016.41 1016.74 1017.04 1017.28 1017.45
1016.75 1015.65 1014.44 1013.16 1011.83 1010.53 1009.32 1008.25 1007.38 1006.74 1006.36 1006.22 1006.31 1006.57 1006.96 1007.43 1007.92 1008.41 1008.88 1009.33 1009.76 1010.20 1010.66 1011.14 1011.65 1012.19 1012.72 1013.22 1013.66 1014.02 1014.30 1014.50 1014.64 1014.74 1014.83 1014.95 1015.13 1015.35 1015.64 1015.96 1016.29 1016.60 1016.85 1017.05
1016.41 1015.28 1014.06 1012.77 1011.47 1010.21 1009.05 1008.05 1007.25 1006.69 1006.38 1006.32 1006.49 1006.83 1007.30 1007.85 1008.42 1008.99 1009.53 1010.03 1010.50 1010.95 1011.40 1011.84 1012.28 1012.72 1013.14 1013.52 1013.84 1014.09 1014.27 1014.38 1014.44 1014.48 1014.52 1014.60 1014.73 1014.91 1015.15 1015.43 1015.72 1016.00 1016.24 1016.43
1015.98 1014.88 1013.70 1012.48 1011.25 1010.08 1009.01 1008.09 1007.38 1006.90 1006.66 1006.67 1006.90 1007.30 1007.82 1008.42 1009.05 1009.67 1010.25 1010.78 1011.26 1011.70 1012.10 1012.49 1012.85 1013.19 1013.50 1013.77 1013.99 1014.14 1014.24 1014.29 1014.30 1014.29 1014.29 1014.32 1014.39 1014.50 1014.67 1014.86 1015.08 1015.29 1015.48 1015.64
1015.46 1014.45 1013.38 1012.27 1011.17 1010.13 1009.18 1008.38 1007.77 1007.37 1007.20 1007.25 1007.51 1007.94 1008.49 1009.10 1009.74 1010.37 1010.95 1011.48 1011.94 1012.34 1012.69 1013.01 1013.28 1013.53 1013.75 1013.93 1014.07 1014.17 1014.22 1014.23 1014.21 1014.17 1014.13 1014.10 1014.11 1014.14 1014.21 1014.31 1014.42 1014.54 1014.66 1014.77
1014.86 1013.99 1013.07 1012.13 1011.21 1010.33 1009.53 1008.86 1008.36 1008.04 1007.93 1008.02 1008.29 1008.71 1009.24 1009.84 1010.45 1011.05 1011.60 1012.08 1012.50 1012.84 1013.13 1013.36 1013.56 1013.73 1013.88 1014.00 1014.09 1014.14 1014.17 1014.17 1014.14 1014.08 1014.02 1013.95 1013.89 1013.85 1013.82 1013.81 1013.81 1013.84 1013.87 1013.93
1014.18 1013.48 1012.75 1012.02 1011.29 1010.60 1009.98 1009.46 1009.08 1008.84 1008.78 1008.88 1009.15 1009.54 1010.03 1010.57 1011.13 1011.66 1012.15 1012.57 1012.92 1013.19 1013.41 1013.57 1013.70 1013.81 1013.90 1013.97 1014.04 1014.08 1014.11 1014.11 1014.09 1014.03 1013.96 1013.86 1013.75 1013.63 1013.52 1013.41 1013.32 1013.25 1013.21 1013.21
1013.43 1012.91 1012.40 1011.88 1011.37 1010.89 1010.46 1010.09 1009.83 1009.68 1009.66 1009.78 1010.02 1010.37 1010.80 1011.27 1011.74 1012.20 1012.61 1012.95 1013.22 1013.43 1013.57 1013.68 1013.75 1013.81 1013.86 1013.91 1013.97 1014.02 1014.05 1014.07 1014.06 1014.02 1013.94 1013.83 1013.69 1013.52 1013.34 1013.17 1013.00 1012.86 1012.76 1012.70
1012.65 1012.31 1012.00 1011.70 1011.41 1011.14 1010.89 1010.68 1010.53 1010.47 1010.49 1010.62 1010.84 1011.15 1011.51 1011.90 1012.29 1012.67 1012.99 1013.26 1013.46 1013.60 1013.69 1013.74 1013.78 1013.80 1013.83 1013.87 1013.92 1013.98 1014.04 1014.08 1014.09 1014.07 1014.01 1013.90 1013.74 1013.55 1013.34 1013.12 1012.91 1012.71 1012.56 1012.45
1011.89 1011.72 1011.60 1011.50 1011.41 1011.32 1011.24 1011.18 1011.15 1011.16 1011.23 1011.37 1011.57 1011.83 1012.13 1012.46 1012.78 1013.07 1013.33 1013.53 1013.67 1013.76 1013.81 1013.83 1013.84 1013.85 1013.87 1013.91 1013.97 1014.04 1014.11 1014.17 1014.21 1014.22 1014.17 1014.08 1013.93 1013.75 1013.53 1013.29 1013.05 1012.82 1012.63 1012.47
1011.23 1011.21 1011.25 1011.32 1011.39 1011.46 1011.53 1011.58 1011.65 1011.73 1011.84 1011.99 1012.18 1012.41 1012.67 1012.93 1013.19 1013.43 1013.63 1013.79 1013.90 1013.96 1013.99 1014.00 1014.00 1014.00 1014.02 1014.06 1014.13 1014.21 1014.30 1014.38 1014.44 1014.48 1014.46 1014.39 1014.28 1014.11 1013.90 1013.67 1013.42 1013.17 1012.93 1012.72
1010.78 1010.87 1011.02 1011.21 1011.41 1011.59 1011.76 1011.91 1012.05 1012.18 1012.33 1012.49 1012.67 1012.88 1013.10 1013.33 1013.55 1013.75 1013.93 1014.06 1014.15 1014.21 1014.24 1014.25 1014.25 1014.26 1014.29 1014.34 1014.41 1014.50 1014.61 1014.71 1014.79 1014.85 1014.87 1014.83 1014.75 1014.61 1014.43 1014.21 1013.96 1013.69 1013.41 1013.13
1010.60 1010.76 1010.99 1011.25 1011.51 1011.77 1012.00 1012.20 1012.38 1012.54 1012.70 1012.87 1013.05 1013.24 1013.44 1013.65 1013.85 1014.04 1014.20 1014.33 1014.42 1014.49 1014.53 1014.56 1014.58 1014.60 1014.65 1014.71 1014.79 1014.89 1015.01 1015.12 1015.22 1015.30 1015.35 1015.35 1015.30 1015.20 1015.05 1014.85 1014.60 1014.31 1013.98 1013.62
1010.73 1010.92 1011.17 1011.46 1011.74 1012.01 1012.25 1012.47 1012.65 1012.82 1012.98 1013.15 1013.32 1013.50 1013.70 1013.90 1014.09 1014.27 1014.44 1014.57 1014.68 1014.77 1014.83 1014.88 1014.93 1014.97 1015.03 1015.11 1015.20 1015.31 1015.43 1015.55 1015.67 1015.77 1015.84 1015.87 1015.85 1015.79 1015.66 1015.47 1015.22 1014.91 1014.54 1014.11
1011.14 1011.33 1011.57 1011.83 1012.09 1012.33 1012.54 1012.73 1012.89 1013.05 1013.20 1013.35 1013.51 1013.68 1013.87 1014.06 1014.26 1014.45 1014.62 1014.77 1014.90 1015.01 1015.10 1015.17 1015.24 1015.31 1015.38 1015.47 1015.57 1015.69 1015.81 1015.94 1016.06 1016.17 1016.26 1016.31 1016.32 1016.28 1016.17 1016.00 1015.75 1015.42 1015.02 1014.52
1011.78 1011.93 1012.12 1012.32 1012.51 1012.68 1012.84 1012.97 1013.09 1013.22 1013.34 1013.47 1013.63 1013.79 1013.98 1014.17 1014.37 1014.57 1014.75 1014.92 1015.06 1015.19 1015.30 1015.39 1015.48 1015.57 1015.65 1015.75 1015.85 1015.97 1016.09 1016.22 1016.34 1016.45 1016.55 1016.61 1016.63 1016.60 1016.51 1016.35 1016.11 1015.78 1015.36 1014.84
1012.53 1012.63 1012.74 1012.85 1012.95 1013.03 1013.11 1013.18 1013.25 1013.33 1013.42 1013.54 1013.69 1013.85 1014.04 1014.24 1014.44 1014.65 1014.84 1015.01 1015.17 1015.31 1015.43 1015.54 1015.63 1015.73 1015.82 1015.91 1016.02 1016.12 1016.24 1016.35 1016.47 1016.57 1016.66 1016.72 1016.75 1016.73 1016.65 1016.50 1016.27 1015.96 1015.54 1015.03
1013.28 1013.30 1013.32 1013.33 1013.33 1013.32 1013.31 1013.32 1013.34 1013.38 1013.46 1013.57 1013.71 1013.89 1014.08 1014.29 1014.50 1014.71 1014.90 1015.08 1015.24 1015.38 1015.50 1015.61 1015.71 1015.80 1015.89 1015.98 1016.07 1016.17 1016.27 1016.37 1016.46 1016.55 1016.62 1016.67 1016.69 1016.67 1016.59 1016.46 1016.25 1015.96 1015.59 1015.12
1013.91 1013.85 1013.77 1013.68 1013.59 1013.50 1013.42 1013.38 1013.36 1013.39 1013.46 1013.58 1013.73 1013.92 1014.13 1014.35 1014.57 1014.78 1014.97 1015.15 1015.30 1015.43 1015.55 1015.65 1015.74 1015.82 1015.90 1015.98 1016.06 1016.14 1016.22 1016.30 1016.37 1016.43 1016.48 1016.51 1016.51 1016.48 1016.40 1016.28 1016.10 1015.85 1015.53 1015.14
1014.34 1014.20 1014.04 1013.87 1013.70 1013.55 1013.44 1013.36 1013.34 1013.37 1013.45 1013.59 1013.77 1013.98 1014.21 1014.44 1014.67 1014.88 1015.07 1015.24 1015.38 1015.49 1015.59 1015.68 1015.75 1015.82 1015.89 1015.95 1016.02 1016.08 1016.15 1016.20 1016.25 1016.29 1016.31 1016.31 1016.29 1016.24 1016.17 1016.05 1015.90 1015.69 1015.43 1015.12
Thickness
5781 5794 5802 5803 5806 5810 5801 5790 5781 5788 5796 5810 5818 5821 5822 5823 5821 5819 5816 5815 5813 5809 5807 5806 5803 5799 5796 5793 5790 5786 5779 5773 5768 5764 5760 5755 5750 5745 5740 5737 5733 5729 5726 5723
5774 5790 5795 5795 5803 5806 5806 5806 5799 5799 5800 5821 5824 5822 5819 5819 5818 5815 5814 5813 5812 5810 5807 5804 5800 5796 5793 5790 5787 5783 5777 5771 5766 5761 5756 5751 5746 5740 5736 5732 5728 5725 5721 5718
5750 5773 5781 5771 5793 5800 5802 5806 5803 5793 5802 5816 5814 5814 5815 5817 5817 5816 5815 5812 5810 5808 5806 5803 5800 5797 5792 5788 5785 5780 5774 5769 5763 5758 5752 5747 5742 5736 5732 5727 5723 5719 5716 5712
5739 5754 5741 5768 5804 5807 5803 5805 5811 5811 5812 5817 5818 5819 5821 5823 5821 5817 5816 5812 5810 5808 5804 5802 5799 5796 5791 5785 5780 5775 5770 5765 5760 5755 5750 5744 5739 5733 5728 5723 5719 5714 5710 5706
5724 5729 5742 5773 5797 5802 5794 5790 5808 5809 5810 5812 5816 5812 5808 5818 5822 5820 5818 5815 5811 5809 5805 5800 5795 5791 5785 5779 5774 5769 5764 5760 5756 5751 5745 5740 5734 5729 5724 5719 5714 5709 5705 5701
5721 5724 5725 5758 5796 5811 5798 5774 5802 5806 5805 5807 5806 5787 5793 5813 5816 5815 5814 5811 5808 5805 5801 5796 5791 5786 5778 5772 5767 5763 5760 5755 5751 5746 5741 5735 5730 5725 5720 5715 5709 5704 5699 5695
5717 5720 5735 5771 5794 5799 5763 5765 5797 5802 5802 5803 5800 5801 5806 5811 5811 5810 5808 5806 5803 5799 5794 5790 5786 5780 5772 5766 5761 5759 5756 5751 5746 5741 5736 5731 5725 5720 5714 5708 5702 5697 5692 5688
5710 5712 5726 5774 5782 5772 5770 5789 5795 5797 5799 5799 5800 5801 5802 5802 5802 5801 5798 5796 5794 5789 5783 5781 5780 5774 5766 5761 5758 5754 5749 5744 5739 5735 5730 5725 5719 5713 5707 5701 5695 5690 5685 5680
5716 5723 5748 5766 5772 5780 5785 5784 5789 5791 5794 5795 5791 5789 5790 5790 5791 5791 5790 5787 5784 5780 5774 5772 5770 5767 5760 5755 5752 5747 5741 5736 5732 5727 5723 5718 5712 5706 5701 5694 5689 5684 5678 5673
5715 5730 5745 5756 5765 5773 5780 5782 5785 5788 5790 5789 5783 5781 5780 5779 5778 5779 5779 5777 5775 5771 5766 5762 5761 5758 5755 5751 5746 5740 5734 5729 5724 5719 5714 5709 5705 5700 5694 5688 5683 5678 5673 5668
5706 5721 5733 5743 5753 5761 5767 5774 5776 5778 5780 5780 5777 5772 5771 5769 5768 5768 5768 5768 5766 5762 5758 5754 5751 5749 5747 5743 5739 5732 5727 5721 5716 5711 5705 5700 5695 5690 5687 5683 5680 5675 5670 5666
5694 5711 5716 5725 5742 5752 5755 5758 5761 5763 5765 5769 5769 5765 5763 5760 5761 5760 5758 5758 5756 5753 5750 5746 5743 5741 5738 5735 5731 5725 5718 5713 5709 5703 5697 5692 5686 5680 5678 5675 5673 5670 5666 5662
5701 5712 5718 5726 5734 5742 5745 5747 5751 5752 5753 5756 5757 5757 5755 5752 5751 5750 5749 5748 5746 5744 5742 5738 5735 5732 5730 5727 5722 5717 5712 5706 5701 5696 5690 5684 5679 5674 5668 5665 5664 5661 5658 5654
5701 5706 5708 5715 5721 5730 5733 5737 5740 5739 5741 5745 5746 5746 5745 5742 5740 5739 5738 5738 5738 5735 5732 5729 5726 5723 5722 5718 5713 5708 5704 5699 5694 5689 5684 5679 5673 5669 5664 5659 5655 5651 5649 5646
5693 5697 5699 5706 5712 5715 5720 5723 5724 5724 5725 5729 5733 5733 5731 5729 5727 5727 5728 5728 5726 5723 5721 5719 5716 5714 5712 5709 5705 5700 5695 5691 5686 5681 5677 5672 5667 5662 5657 5653 5648 5644 5639 5636
5682 5687 5690 5696 5699 5703 5707 5708 5708 5710 5714 5716 5717 5718 5718 5718 5718 5717 5717 5717 5714 5711 5709 5708 5706 5705 5703 5700 5695 5691 5687 5684 5679 5674 5668 5664 5659 5654 5649 5645 5640 5636 5633 5629
5669 5672 5678 5683 5686 5691 5695 5699 5700 5701 5704 5706 5705 5706 5706 5705 5704 5704 5704 5705 5704 5702 5700 5699 5697 5696 5693 5690 5686 5682 5678 5674 5670 5666 5661 5657 5653 5648 5644 5640 5635 5631 5628 5625
5665 5668 5674 5676 5677 5681 5686 5689 5691 5693 5694 5696 5695 5694 5694 5692 5691 5692 5693 5693 5691 5689 5689 5689 5688 5686 5683 5680 5677 5673 5669 5665 5660 5656 5653 5649 5645 5641 5637 5633 5629 5625 5621 5617
5658 5661 5665 5669 5672 5675 5677 5679 5681 5683 5685 5686 5684 5683 5682 5682 5682 5682 5682 5680 5679 5676 5677 5679 5678 5675 5672 5670 5667 5663 5659 5655 5650 5647 5643 5640 5636 5633 5629 5625 5621 5618 5614 5609
5653 5656 5658 5661 5665 5667 5668 5671 5673 5673 5674 5674 5672 5671 5670 5670 5670 5670 5670 5668 5669 5669 5669 5669 5667 5664 5662 5659 5657 5653 5649 5645 5641 5637 5633 5630 5627 5623 5620 5617 5614 5610 5606 5602
5644 5647 5649 5651 5654 5658 5660 5662 5663 5662 5663 5663 5661 5660 5660 5660 5661 5660 5659 5658 5659 5660 5660 5659 5657 5654 5651 5649 5646 5643 5639 5635 5631 5628 5625 5621 5618 5615 5612 5609 5606 5603 5599 5595
5635 5637 5640 5641 5643 5646 5649 5651 5652 5653 5652 5652 5651 5651 5650 5650 5650 5650 5650 5650 5650 5651 5650 5648 5646 5644 5642 5639 5636 5633 5629 5626 5622 5619 5616 5613 5610 5606 5604 5601 5598 5595 5592 5589
5625 5628 5630 5631 5633 5634 5637 5639 5641 5642 5642 5642 5642 5643 5642 5641 5642 5641 5639 5640 5641 5641 5640 5638 5637 5635 5633 5629 5626 5623 5620 5618 5614 5611 5608 5605 5602 5599 5596 5594 5591 5588 5585 5581
5616 5619 5622 5624 5625 5625 5626 5628 5630 5632 5633 5634 5635 5635 5634 5632 5631 5632 5633 5633 5633 5632 5630 5629 5628 5626 5624 5620 5618 5615 5612 5609 5607 5603 5601 5598 5594 5592 5589 5586 5583 5580 5578 5575
5609 5612 5614 5615 5615 5616 5617 5620 5620 5621 5622 5623 5624 5625 5626 5626 5624 5623 5624 5624 5624 5623 5621 5620 5619 5617 5614 5612 5609 5607 5604 5602 5599 5596 5593 5590 5587 5585 5582 5579 5577 5573 5571 5568
5601 5603 5604 5606 5607 5608 5610 5611 5611 5612 5612 5613 5614 5615 5616 5616 5617 5616 5616 5616 5615 5614 5612 5610 5609 5607 5605 5603 5601 5599 5596 5594 5591 5588 5586 5584 5581 5578 5576 5573 5570 5567 5564 5561
5593 5594 5596 5597 5599 5601 5602 5603 5603 5604 5604 5605 5605 5606 5607 5607 5608 5608 5607 5606 5605 5605 5603 5602 5601 5599 5597 5595 5593 5591 5589 5586 5584 5581 5579 5576 5574 5571 5569 5566 5563 5560 5557 5555